Skip Page Navigation
NASA JPL Caltech
NASA Logo - Jet Propulsion Laboratory + View the NASA Portal
+ Center for Near-Earth Object Studies
JPL Home Earth Solar System Stars & Galaxies Technology
JPL Solar System Dynamics
BODIES ORBITS EPHEMERIDES TOOLS PHYSICAL DATA DISCOVERY FAQ SITE MAP
JPL Small-Body Database Browser
Search: [ help ]  
7882 (1993 FL6)
Classification: Main-belt Asteroid          SPK-ID: 2007882
Ephemeris | Orbit Diagram | Orbital Elements | Mission Design | Physical Parameters | Discovery Circumstances | Close-Approach Data ]

[ hide orbit diagram ]

For accurate long-term ephemerides, please instead use our Horizons system.This orbit viewer was implemented using two-body methods, and hence should not be used for determining accurate long-term trajectories (over several years or decades) or planetary encounter circumstances.


[ revert to old Java-based viewer ]

Orbital Elements at Epoch 2459000.5 (2020-May-31.0) TDB
Reference: JPL 33 (heliocentric ecliptic J2000)
 Element Value Uncertainty (1-sigma)   Units 
e .05118538792778643 3.6231e-08  
a 2.138917833247826 6.0079e-09 au
q 2.029436494207376 7.6795e-08 au
i 2.033320424463703 2.7925e-06 deg
node 97.87040587604331 0.00013605 deg
peri 152.3967294986332 0.00014319 deg
M 186.9473067315306 4.4945e-05 deg
tp 2459549.744151295307
(2021-Dec-01.24415130)
0.00014265 TDB
period 1142.587790642244
3.13
4.814e-06
1.318e-08
d
yr
n .3150742577055241 1.3275e-09 deg/d
Q 2.248399172288276 6.3154e-09 au
  Orbit Determination Parameters
   # obs. used (total)      1569  
   data-arc span      11674 days (31.96 yr)  
   first obs. used      1988-11-06  
   last obs. used      2020-10-23  
   planetary ephem.      DE431  
   SB-pert. ephem.      SB431-N16  
   condition code      0  
   norm. resid. RMS      .51121  
   source      ORB  
   producer      Otto Matic  
   solution date      2020-Nov-13 03:24:56  

Additional Information
 Earth MOID = 1.01528 au 
 Jupiter MOID = 2.74451 au 
 T_jup = 3.713 
[ show covariance matrix ]

Ephemeris | Orbit Diagram | Orbital Elements | Mission Design | Physical Parameters | Discovery Circumstances | Close-Approach Data ]

Physical Parameter Table
Parameter Symbol Value Units Sigma Reference Notes
absolute magnitude H 15.1   n/a MPO502227  

7882 (1993 FL6)          Discovered 1993-Mar-17 by UESAC at La Silla
Reference: DISCOVERY.DBLast Updated: 2003-08-29

[ show close-approach data ]
Alternate Designations
 1993 FL6 = 1996 EE 
Ephemeris | Orbit Diagram | Orbital Elements | Mission Design | Physical Parameters | Discovery Circumstances | Close-Approach Data ]
ABOUT SSD CREDITS/AWARDS PRIVACY/COPYRIGHT GLOSSARY LINKS
FirstGov 2020-Dec-03 05:45 UT
(server date/time)  
NASA Home Page
Site Manager:   Ryan S. Park
Webmaster  Alan B. Chamberlin